Regional Weather Roundup
Issued by NWS

Home | Current Version | Previous Version | Graphics & Text | Print | Product List | Glossary On
Versions: 1 2 3 4 5 6 7 8 9 10 11 12 13 14 15 16 17 18 19 20 21 22 23 24 25 26 27 28 29 30 31 32 33 34 35 36 37 38 39 40 41 42 43 44 45 46 47 48 49 50
000
ASUS43 KOAX 221210
RWRNE

WEATHER ROUNDUP FOR NEBRASKA
NATIONAL WEATHER SERVICE OMAHA NE
600 AM CST MON DEC 22 2014

NOTES: SATELLITE DATA IS BEING USED TO AUGMENT CLOUD COVER ABOVE
       12000 FEET.
       "FAIR" INDICATES FEW OR NO CLOUDS BELOW 12,000 FEET WITH NO
       SIGNIFICANT WEATHER AND/OR OBSTRUCTIONS TO VISIBILITY.

  * THESE STATIONS DO NOT REPORT WEATHER SUCH AS RAIN...SNOW OR FOG.

NEZ001>004-019>022-054>056-221300-
NEBRASKA PANHANDLE

CITY           SKY/WX    TMP DP  RH WIND       PRES   REMARKS
SCOTTSBLUFF    MOCLDY    35  27  72 W10       29.68S WCI  27
6HR MIN TEMP:  35; 6HR MAX TEMP:  38;

ALLIANCE       CLOUDY    35  27  72 NW22      29.63R WCI  23
6HR MIN TEMP:  29; 6HR MAX TEMP:  38;

CHADRON        MOCLDY    36  29  75 W20       29.63R WCI  25
6HR MIN TEMP:  36; 6HR MAX TEMP:  38;

KIMBALL        FLURRIES  31  30  96 NW17G24   29.68R WCI  20
SIDNEY         MIX PCPN  35  26  69 NW28G35   29.66R WCI  22
6HR MIN TEMP:  34; 6HR MAX TEMP:  37; 6HR PCP: TRACE;

$$

NEZ057>060-069>072-079>082-221300-
SOUTHWEST NEBRASKA

CITY           SKY/WX    TMP DP  RH WIND       PRES   REMARKS
NORTH PLATTE   CLOUDY    36  32  85 NW13      29.58R WCI  27
6HR MIN TEMP:  25; 6HR MAX TEMP:  37;

IMPERIAL       MOCLDY    37  27  67 NW15      29.62R WCI  28
6HR MIN TEMP:  37; 6HR MAX TEMP:  41;

LEXINGTON      CLOUDY    37  33  87 NW13      29.55R WCI  28
MCCOOK         MOCLDY    39  32  76 NW15      29.59R WCI  31
6HR MIN TEMP:  30; 6HR MAX TEMP:  40;

OGALLALA       MOCLDY    36  30  80 NW14      29.62R WCI  27
$$

NEZ005>010-023>029-035>040-094-221300-
NORTH CENTRAL NEBRASKA

CITY           SKY/WX    TMP DP  RH WIND       PRES   REMARKS
VALENTINE      PTCLDY    37  33  85 NW14      29.50S WCI  28
6HR MIN TEMP:  36; 6HR MAX TEMP:  40; 6HR PCP: TRACE;

AINSWORTH      CLOUDY    36  34  92 W12       29.50S WCI  28
BROKEN BOW     CLOUDY    40  35  83 NW20G26   29.52R WCI  30
6HR MIN TEMP:  33; 6HR MAX TEMP:  40;

O`NEILL        CLOUDY    38  38 100 NW15G22   29.47R FOG     WCI  30
THEDFORD       CLOUDY    37  34  90 NW12      29.54S WCI  29
$$

NEZ041-046>049-061>064-073>077-083>087-221300-
SOUTH CENTRAL NEBRASKA

CITY           SKY/WX    TMP DP  RH WIND       PRES   REMARKS
GRAND ISLAND   CLOUDY    38  36  92 W9        29.51S WCI  31
6HR MIN TEMP:  38; 6HR MAX TEMP:  42; 6HR PCP: TRACE;

AURORA         CLOUDY    42  41  99 W9        29.50S FOG
HASTINGS       CLOUDY    36  34  92 W9        29.51R FOG     WCI  29
6HR MIN TEMP:  36; 6HR MAX TEMP:  42;

HEBRON         LGT RAIN  43  41  93 S8        29.50S
HOLDREGE       CLOUDY    38  34  84 NW14      29.53R WCI  30
KEARNEY *      CLOUDY    36  32  87 W12       29.53R WCI  27
YORK           MIX PCPN  41  41 100 SW7       29.50S
$$

NEZ011>018-030>034-042>045-221300-
NORTHEAST NEBRASKA

CITY           SKY/WX    TMP DP  RH WIND       PRES   REMARKS
NORFOLK        CLOUDY    43  41  93 SW8       29.47S FOG
6HR MIN TEMP:  42; 6HR MAX TEMP:  43; 6HR PCP:  0.03;

ALBION         CLOUDY    39  37  90 W8        29.49R FOG     WCI  34
BLAIR          LGT RAIN  43  41  93 S12G18    29.53S
COLUMBUS *     CLOUDY    43  39  87 S9        29.51S
FREMONT        RAIN      43  42  96 SE8       29.52S
TEKAMAH        LGT RAIN  43  41  93 SE14      29.53S
6HR MIN TEMP:  43; 6HR MAX TEMP:  44; 6HR PCP:  0.07;

WAYNE          LGT RAIN  42  41  98 S10       29.48S
$$

NEZ050>053-065>068-078-088>093-221300-
SOUTHEAST NEBRASKA

CITY           SKY/WX    TMP DP  RH WIND       PRES   REMARKS
LINCOLN        LGT RAIN  43  42  97 S10       29.53S
6HR MIN TEMP:  43; 6HR MAX TEMP:  44; 6HR PCP:  0.07;

OMAHA EPPLEY   LGT RAIN  43  41  93 S15       29.56F
6HR MIN TEMP:  43; 6HR MAX TEMP:  43; 6HR PCP:  0.06;

BEATRICE       LGT RAIN  42  41  97 S10       29.52S
FALLS CITY     LGT RAIN  42  40  92 SE10      29.57F FOG
6HR MIN TEMP:  42; 6HR MAX TEMP:  43; 6HR PCP:  0.05;

NEBRASKA CITY  LGT RAIN  41  41 100 S9        29.55F
PLATTSMOUTH    LGT RAIN  41  39  95 SE10      29.55F
$$

NEZ044-045-051>053-067-221300-
OMAHA AREA

CITY           SKY/WX    TMP DP  RH WIND       PRES   REMARKS
OMAHA EPPLEY   LGT RAIN  43  41  93 S15       29.56F
6HR MIN TEMP:  43; 6HR MAX TEMP:  43; 6HR PCP:  0.06;

BLAIR          LGT RAIN  43  41  93 S12G18    29.53S
FREMONT        RAIN      43  42  96 SE8       29.52S
MILLARD        LGT RAIN  43  41  93 SE10      29.54S
OFFUTT AFB     RAIN      42  41  95 SE14      29.55F FOG
PLATTSMOUTH    LGT RAIN  41  39  95 SE10      29.55F
WAHOO          LGT RAIN  43  40  91 S10       29.52S
$$


USA.gov is the U.S. government's official web portal to all federal, state and local government web resources and services.